GW6317 Weather Reports


time (UTC)temp
C
wind
direction
speed
KPH
gust
KPH
rain 1hr
cm
rain 24hr
cm
rain mn
cm
humidity
%
barometer
mb
20260503072014 12 41 8.0 16.1 0.00 0.00 0.00 46 1017.0
20260503071539 12 67 4.8 11.3 0.00 0.00 0.00 46 1017.1
20260503071013 12 44 3.2 16.1 0.00 0.00 0.00 46 1017.1
20260503070513 12 55 6.4 16.1 0.00 0.00 0.00 46 1017.0
20260503055013 12 207 1.6 3.2 0.00 0.00 0.00 44 1016.9
20260503054534 12 340 0.0 3.2 0.00 0.00 0.00 43 1016.9
20260503054015 12 0 0.0 3.2 0.00 0.00 0.00 43 1017.0
20260503053515 12 51 0.0 4.8 0.00 0.00 0.00 43 1016.9
20260503053034 12 55 1.6 12.9 0.00 0.00 0.00 44 1016.8
20260503052514 12 10 3.2 12.9 0.00 0.00 0.00 45 1016.8
20260503052018 12 5 6.4 9.7 0.00 0.00 0.00 45 1016.7
20260503051531 12 9 4.8 11.3 0.00 0.00 0.00 46 1017.0
20260503051014 11 15 6.4 11.3 0.00 0.00 0.00 48 1016.9
20260503050513 11 14 6.4 8.0 0.00 0.00 0.00 48 1016.9
20260503050031 11 352 4.8 8.0 0.00 0.00 0.00 50 1016.9
20260503045517 11 33 3.2 8.0 0.00 0.00 0.00 50 1017.1
20260503045015 11 30 1.6 9.7 0.00 0.00 0.00 50 1017.0
20260503044528 11 17 3.2 9.7 0.00 0.00 0.00 50 1017.0
20260503044013 11 69 1.6 3.2 0.00 0.00 0.00 50 1017.0
20260503043515 11 89 1.6 6.4 0.00 0.00 0.00 50 1017.0
20260503043031 11 121 1.6 9.7 0.00 0.00 0.00 51 1017.0
20260503042514 12 159 3.2 9.7 0.00 0.00 0.00 51 1016.9
20260503042016 12 169 4.8 22.5 0.00 0.00 0.00 50 1017.0
20260503041531 12 183 8.0 22.5 0.00 0.00 0.00 50 1016.9
20260503041017 13 186 9.7 17.7 0.00 0.00 0.00 44 1017.0
20260503040516 13 169 6.4 12.9 0.00 0.00 0.00 41 1016.5
20260503040031 13 203 3.2 11.3 0.00 0.00 0.00 41 1016.3
20260503035515 13 65 4.8 11.3 0.00 0.00 0.00 39 1016.1
20260503035014 13 77 4.8 12.9 0.00 0.00 0.00 40 1016.0
20260503034530 13 61 6.4 12.9 0.00 0.00 0.00 40 1015.9
20260503034013 13 34 6.4 12.9 0.00 0.00 0.00 41 1015.9
20260503033519 13 36 3.2 9.7 0.00 0.00 0.00 40 1016.0
20260503033032 13 123 3.2 12.9 0.00 0.00 0.00 40 1015.8
20260503032516 13 86 4.8 12.9 0.00 0.00 0.00 40 1015.7
20260503032015 12 97 4.8 11.3 0.00 0.00 0.00 40 1015.8
20260503031532 12 61 3.2 9.7 0.00 0.00 0.00 41 1015.8
20260503031016 12 76 3.2 9.7 0.00 0.00 0.00 42 1015.7
20260503030517 12 129 4.8 14.5 0.00 0.00 0.00 42 1015.6
20260503030031 12 24 4.8 14.5 0.00 0.00 0.00 42 1015.6
20260503025514 13 78 4.8 16.1 0.00 0.00 0.00 43 1015.5
20260503025013 13 55 4.8 19.3 0.00 0.00 0.00 43 1015.6
20260503024533 13 53 8.0 19.3 0.00 0.00 0.00 42 1015.4
20260503024014 13 106 9.7 19.3 0.00 0.00 0.00 41 1015.6
20260503023514 13 51 4.8 9.7 0.00 0.00 0.00 41 1015.8
20260503023030 13 62 3.2 14.5 0.00 0.00 0.00 41 1015.7
20260503022515 14 161 4.8 14.5 0.00 0.00 0.00 40 1015.8
20260503022014 14 107 3.2 14.5 0.00 0.00 0.00 40 1015.7
20260503021530 14 165 3.2 14.5 0.00 0.00 0.00 38 1015.6
20260503021014 14 154 4.8 14.5 0.00 0.00 0.00 38 1015.5
20260503020514 14 133 3.2 16.1 0.00 0.00 0.00 37 1015.5
20260503020031 14 214 4.8 22.5 0.00 0.00 0.00 37 1015.3
20260503015513 14 108 8.0 22.5 0.00 0.00 0.00 37 1015.2
20260503015013 14 151 9.7 17.7 0.00 0.00 0.00 38 1015.1
20260503014534 14 145 8.0 20.9 0.00 0.00 0.00 37 1015.3
20260503014014 15 118 4.8 17.7 0.00 0.00 0.00 38 1015.3
20260503013514 15 301 8.0 27.4 0.00 0.00 0.00 38 1015.3
20260503013030 15 154 11.3 27.4 0.00 0.00 0.00 37 1015.1
20260503012514 15 144 12.9 32.2 0.00 0.00 0.00 38 1015.2
20260503012019 15 123 11.3 32.2 0.00 0.00 0.00 37 1015.1
20260503011532 15 65 9.7 22.5 0.00 0.00 0.00 36 1015.2
20260503011016 16 61 8.0 27.4 0.00 0.00 0.00 36 1015.1
20260503010514 16 65 11.3 27.4 0.00 0.00 0.00 35 1015.1
20260503010036 17 159 11.3 24.1 0.00 0.00 0.00 33 1015.0
20260503005514 17 263 4.8 19.3 0.00 0.00 0.00 33 1014.9
20260503005016 18 248 4.8 20.9 0.00 0.00 0.00 33 1014.8
20260503004532 18 227 6.4 20.9 0.00 0.00 0.00 32 1014.8
20260503004015 18 117 3.2 12.9 0.00 0.00 0.00 33 1014.7
20260503003513 18 169 6.4 14.5 0.00 0.00 0.00 33 1014.7
20260503003047 17 307 4.8 14.5 0.00 0.00 0.00 34 1014.8
20260503002513 17 41 4.8 12.9 0.00 0.00 0.00 34 1014.8
20260503002019 17 178 3.2 12.9 0.00 0.00 0.00 35 1014.8
20260503001556 17 163 4.8 17.7 0.00 0.00 0.00 34 1014.7
20260503001015 18 56 3.2 19.3 0.00 0.00 0.00 33 1014.8
20260503000514 18 173 3.2 19.3 0.00 0.00 0.00 33 1014.7
20260503000038 18 162 6.4 33.8 0.00 0.00 0.00 33 1014.8
20260502235514 18 102 11.3 33.8 0.00 0.00 0.00 31 1014.8
20260502235014 18 107 4.8 16.1 0.00 0.00 0.00 32 1015.0
20260502234536 18 263 6.4 16.1 0.00 0.00 0.00 31 1014.8
20260502234016 18 163 3.2 16.1 0.00 0.00 0.00 32 1015.0
20260502233516 18 173 6.4 16.1 0.00 0.00 0.00 32 1015.1
20260502233032 18 168 6.4 19.3 0.00 0.00 0.00 31 1015.1
20260502232513 19 160 4.8 19.3 0.00 0.00 0.00 31 1015.2
20260502232013 20 81 6.4 17.7 0.00 0.00 0.00 31 1015.1
20260502231531 20 330 3.2 19.3 0.00 0.00 0.00 31 1015.2
20260502231014 19 171 6.4 19.3 0.00 0.00 0.00 31 1015.3
20260502230517 19 225 4.8 16.1 0.00 0.00 0.00 31 1015.3
20260502230036 19 151 3.2 20.9 0.00 0.00 0.00 31 1015.4
20260502225514 19 116 6.4 20.9 0.00 0.00 0.00 31 1015.6
20260502225018 20 221 6.4 17.7 0.00 0.00 0.00 32 1015.6
20260502224529 20 197 6.4 17.7 0.00 0.00 0.00 33 1015.7
20260502224018 20 262 4.8 19.3 0.00 0.00 0.00 34 1015.9
20260502223516 19 261 4.8 19.3 0.00 0.00 0.00 35 1015.8
20260502223033 19 169 6.4 19.3 0.00 0.00 0.00 34 1015.9
20260502222514 19 11 4.8 17.7 0.00 0.00 0.00 34 1015.8
20260502222014 20 169 4.8 14.5 0.00 0.00 0.00 33 1016.1
20260502221530 20 75 4.8 17.7 0.00 0.00 0.00 33 1016.2
20260502221014 20 107 8.0 19.3 0.00 0.00 0.00 31 1016.2
20260502220516 20 306 6.4 19.3 0.00 0.00 0.00 35 1016.3
20260502220034 19 148 4.8 16.1 0.00 0.00 0.00 33 1016.3
20260502215515 19 254 4.8 16.1 0.00 0.00 0.00 33 1016.3
20260502215016 19 296 4.8 16.1 0.00 0.00 0.00 33 1016.3
20260502214545 19 341 4.8 16.1 0.00 0.00 0.00 32 1016.5
20260502214014 19 247 8.0 16.1 0.00 0.00 0.00 32 1016.5
20260502213516 20 136 4.8 16.1 0.00 0.00 0.00 34 1016.4
20260502213036 20 136 6.4 16.1 0.00 0.00 0.00 35 1016.4
20260502212516 20 180 4.8 16.1 0.00 0.00 0.00 35 1016.3
20260502212018 18 161 6.4 16.1 0.00 0.00 0.00 36 1016.3
20260502211532 18 82 4.8 14.5 0.00 0.00 0.00 38 1016.3
20260502211013 18 196 4.8 14.5 0.00 0.00 0.00 37 1016.3
20260502210515 18 64 4.8 14.5 0.00 0.00 0.00 38 1016.3
20260502210030 17 90 3.2 11.3 0.00 0.00 0.00 38 1016.3
20260502205516 17 209 3.2 9.7 0.00 0.00 0.00 36 1016.3
20260502205014 17 129 3.2 9.7 0.00 0.00 0.00 37 1016.5
20260502204531 17 300 3.2 11.3 0.00 0.00 0.00 38 1016.5
20260502204017 17 20 3.2 12.9 0.00 0.00 0.00 36 1016.7
20260502203515 17 110 4.8 12.9 0.00 0.00 0.00 37 1016.7
20260502203030 17 161 3.2 16.1 0.00 0.00 0.00 36 1016.8
20260502202516 17 77 6.4 16.1 0.00 0.00 0.00 36 1016.7
20260502202016 17 352 4.8 19.3 0.00 0.00 0.00 36 1016.7
20260502201533 17 108 6.4 19.3 0.00 0.00 0.00 36 1016.9
20260502201014 17 148 1.6 11.3 0.00 0.00 0.00 35 1016.7
20260502200514 17 97 4.8 11.3 0.00 0.00 0.00 34 1016.9
20260502200032 17 38 3.2 16.1 0.00 0.00 0.00 35 1016.8
20260502195514 17 42 3.2 16.1 0.00 0.00 0.00 34 1016.9
20260502195013 18 205 4.8 16.1 0.00 0.00 0.00 35 1017.1
20260502194531 18 11 4.8 16.1 0.00 0.00 0.00 34 1017.0
20260502194014 18 121 4.8 12.9 0.00 0.00 0.00 33 1017.0
20260502193515 18 148 3.2 17.7 0.00 0.00 0.00 36 1017.1
20260502193032 18 88 6.4 17.7 0.00 0.00 0.00 34 1017.2
20260502192513 18 180 4.8 12.9 0.00 0.00 0.00 34 1016.9
20260502192015 18 215 3.2 12.9 0.00 0.00 0.00 35 1017.0
20260502191533 18 191 6.4 14.5 0.00 0.00 0.00 34 1017.0
20260502191013 17 154 6.4 14.5 0.00 0.00 0.00 37 1017.2
20260502190517 17 167 4.8 14.5 0.00 0.00 0.00 37 1017.0
20260502190038 17 173 3.2 11.3 0.00 0.00 0.00 37 1017.0
20260502185520 17 128 3.2 12.9 0.00 0.00 0.00 37 1016.9
20260502185015 17 118 3.2 12.9 0.00 0.00 0.00 36 1017.0
20260502184551 17 213 6.4 14.5 0.00 0.00 0.00 36 1017.0
20260502184015 17 31 4.8 19.3 0.00 0.00 0.00 33 1017.0
20260502183515 18 165 4.8 17.7 0.00 0.00 0.00 33 1016.9
20260502183032 18 200 4.8 17.7 0.00 0.00 0.00 31 1016.9
20260502182514 18 194 3.2 14.5 0.00 0.00 0.00 32 1016.9
20260502182015 18 154 6.4 16.1 0.00 0.00 0.00 31 1016.8
20260502181533 18 194 4.8 16.1 0.00 0.00 0.00 34 1016.7
20260502181019 18 219 6.4 16.1 0.00 0.00 0.00 32 1016.8
20260502180516 18 15 6.4 16.1 0.00 0.00 0.00 30 1016.7
20260502170516 18 114 4.8 16.1 0.00 0.00 0.00 29 1016.4
20260502164021 17 67 3.2 9.7 0.00 0.00 0.00 28 1016.5
20260502163515 16 189 3.2 9.7 0.00 0.00 0.00 28 1016.4
20260502163037 16 82 3.2 9.7 0.00 0.00 0.00 27 1016.5
20260502162515 15 132 1.6 11.3 0.00 0.00 0.00 30 1016.5
20260502162019 15 146 3.2 11.3 0.00 0.00 0.00 28 1016.5
20260502161536 15 344 1.6 11.3 0.00 0.00 0.00 31 1016.5
20260502161015 14 127 1.6 9.7 0.00 0.00 0.00 31 1016.5
20260502160519 14 140 3.2 11.3 0.00 0.00 0.00 30 1016.5
20260502152016 13 154 1.6 4.8 0.00 0.00 0.00 30 1016.1
20260502151530 13 173 1.6 12.9 0.00 0.00 0.00 30 1016.1
20260502151015 13 154 1.6 12.9 0.00 0.00 0.00 28 1016.0
20260502150515 13 194 1.6 9.7 0.00 0.00 0.00 28 1015.9
20260502130516 12 134 1.6 6.4 0.00 0.00 0.00 24 1015.3
20260502123515 11 78 1.6 3.2 0.00 0.00 0.00 26 1015.6
20260502123036 11 0 0.0 4.8 0.00 0.00 0.00 25 1015.7
20260502122515 11 161 0.0 4.8 0.00 0.00 0.00 26 1015.6
20260502122017 11 0 0.0 3.2 0.00 0.00 0.00 25 1015.5
20260502121532 12 165 1.6 4.8 0.00 0.00 0.00 24 1015.6
20260502121015 12 137 1.6 4.8 0.00 0.00 0.00 24 1015.5
20260502120515 12 125 0.0 4.8 0.00 0.00 0.00 22 1015.4
20260502115515 12 103 3.2 6.4 0.00 0.00 0.00 22 1015.2
20260502115015 12 58 0.0 3.2 0.00 0.00 0.00 22 1015.3
20260502114534 12 78 0.0 4.8 0.00 0.00 0.00 22 1015.3
20260502114021 12 0 1.6 11.3 0.00 0.00 0.00 23 1015.3
20260502113515 12 61 3.2 12.9 0.00 0.00 0.00 23 1015.4
20260502113037 12 146 3.2 12.9 0.00 0.00 0.00 23 1015.4
20260502112514 12 94 1.6 8.0 0.00 0.00 0.00 23 1015.4
20260502112015 12 83 1.6 8.0 0.00 0.00 0.00 24 1015.5
20260502111534 12 5 1.6 6.4 0.00 0.00 0.00 24 1015.5
20260502111107 12 93 3.2 12.9 0.00 0.00 0.00 24 1015.6
20260502110515 12 73 1.6 12.9 0.00 0.00 0.00 24 1015.6
20260502110030 11 26 3.2 6.4 0.00 0.00 0.00 25 1015.6
20260502105516 11 92 1.6 6.4 0.00 0.00 0.00 24 1015.7
20260502105016 11 61 1.6 8.0 0.00 0.00 0.00 25 1015.7
20260502104537 11 107 1.6 8.0 0.00 0.00 0.00 25 1015.8
20260502104015 11 0 1.6 8.0 0.00 0.00 0.00 26 1015.8
20260502103515 11 0 1.6 6.4 0.00 0.00 0.00 26 1015.8
20260502103032 11 130 1.6 6.4 0.00 0.00 0.00 26 1015.7
20260502102515 11 133 1.6 6.4 0.00 0.00 0.00 26 1015.8
20260502102016 12 123 1.6 6.4 0.00 0.00 0.00 26 1015.8
20260502101530 12 134 1.6 6.4 0.00 0.00 0.00 25 1015.7
20260502101014 12 97 1.6 4.8 0.00 0.00 0.00 25 1015.8
20260502100514 12 130 1.6 4.8 0.00 0.00 0.00 25 1015.8
20260502091532 12 100 1.6 6.4 0.00 0.00 0.00 27 1016.2
20260502091015 12 70 3.2 6.4 0.00 0.00 0.00 29 1016.3
20260502090514 12 360 0.0 4.8 0.00 0.00 0.00 34 1016.3